GW0366 Weather Reports


time (UTC)temp
C
wind
direction
speed
KPH
gust
KPH
rain 1hr
cm
rain 24hr
cm
rain mn
cm
humidity
%
barometer
mb
20260503215052 20 219 0.0 0.0 0.00 0.00 0.00 56 1016.8
20260503214550 20 205 0.0 0.0 0.00 0.00 0.00 55 1016.6
20260503214046 21 204 0.0 0.0 0.00 0.00 0.00 56 1016.6
20260503213545 20 203 0.0 0.0 0.00 0.00 0.00 57 1016.8
20260503213041 20 204 0.0 0.0 0.00 0.00 0.00 55 1016.8
20260503212538 21 140 0.0 0.0 0.00 0.00 0.00 57 1016.8
20260503212036 21 140 0.0 0.0 0.00 0.00 0.00 56 1016.5
20260503211533 21 192 0.0 0.0 0.00 0.00 0.00 58 1016.9
20260503211028 20 201 0.0 0.0 0.00 0.00 0.00 56 1016.9
20260503210525 21 184 0.0 0.0 0.00 0.00 0.00 56 1017.0
20260503210021 21 180 0.0 0.0 0.00 0.00 0.00 54 1017.2
20260503205518 21 273 0.0 0.0 0.00 0.00 0.00 56 1017.2
20260503205014 21 288 0.0 0.0 0.00 0.00 0.00 54 1017.4
20260503204512 21 265 0.0 0.0 0.00 0.00 0.00 57 1017.4
20260503204008 21 263 0.0 0.0 0.00 0.00 0.00 55 1017.2
20260503203506 20 256 0.0 0.0 0.00 0.00 0.00 56 1017.4
20260503203002 20 162 0.0 0.0 0.00 0.00 0.00 56 1017.2
20260503202500 20 198 0.0 0.0 0.00 0.00 0.00 56 1017.3
20260503201958 20 194 0.0 0.0 0.00 0.00 0.00 55 1017.3
20260503201456 20 184 0.0 0.0 0.00 0.00 0.00 55 1017.5
20260503200953 20 210 0.0 0.0 0.00 0.00 0.00 57 1017.5
20260503200449 20 226 0.0 0.0 0.00 0.00 0.00 55 1017.4
20260503195946 20 204 0.0 0.0 0.00 0.00 0.00 56 1017.3
20260503195443 21 205 0.0 0.0 0.00 0.00 0.00 56 1017.7
20260503194940 21 208 0.0 0.0 0.00 0.00 0.00 54 1017.8
20260503194437 20 207 0.0 0.0 0.00 0.00 0.00 52 1017.6
20260503193932 20 208 0.0 0.0 0.00 0.00 0.00 54 1017.9
20260503193428 20 199 0.0 0.0 0.00 0.00 0.00 55 1017.9
20260503192923 20 193 0.0 0.0 0.00 0.00 0.00 58 1018.0
20260503192420 20 203 0.0 0.0 0.00 0.00 0.00 57 1018.1
20260503191916 19 193 0.0 0.0 0.00 0.00 0.00 56 1018.2
20260503191414 20 192 0.0 0.0 0.00 0.00 0.00 56 1018.3
20260503190910 21 170 0.0 0.0 0.00 0.00 0.00 52 1018.6
20260503190408 20 197 0.0 0.0 0.00 0.00 0.00 56 1018.7
20260503185904 20 199 0.0 0.0 0.00 0.00 0.00 55 1018.7
20260503185400 20 199 0.0 0.0 0.00 0.00 0.00 55 1018.7
20260503184859 20 193 0.0 0.0 0.00 0.00 0.00 55 1018.5
20260503184356 18 190 0.0 0.0 0.00 0.00 0.00 58 1018.9
20260503183852 19 192 0.0 0.0 0.00 0.00 0.00 57 1018.7
20260503183349 20 202 0.0 0.0 0.00 0.00 0.00 58 1018.7
20260503182847 20 202 0.0 0.0 0.00 0.00 0.00 57 1018.9
20260503182346 20 204 0.0 0.0 0.00 0.00 0.00 54 1019.2
20260503181842 21 199 0.0 0.0 0.00 0.00 0.00 52 1019.0
20260503181339 21 198 0.0 0.0 0.00 0.00 0.00 54 1018.9
20260503180836 22 195 1.6 4.8 0.00 0.00 0.00 51 1018.9
20260503180334 21 204 0.0 1.6 0.00 0.00 0.00 56 1019.2
20260503175830 20 194 1.6 3.2 0.00 0.00 0.00 55 1019.1
20260503175328 20 199 0.0 0.0 0.00 0.00 0.00 54 1019.1
20260503174823 21 201 0.0 0.0 0.00 0.00 0.00 55 1019.0
20260503174322 21 211 0.0 0.0 0.00 0.00 0.00 56 1018.9
20260503173817 21 221 0.0 0.0 0.00 0.00 0.00 55 1019.0
20260503173314 21 210 0.0 0.0 0.00 0.00 0.00 59 1019.0
20260503172810 21 235 0.0 0.0 0.00 0.00 0.00 59 1019.2
20260503172308 21 221 0.0 0.0 0.00 0.00 0.00 57 1019.1
20260503171804 20 225 0.0 0.0 0.00 0.00 0.00 58 1019.0
20260503171301 20 211 0.0 0.0 0.00 0.00 0.00 57 1019.0
20260503170758 20 211 0.0 0.0 0.00 0.00 0.00 56 1019.3
20260503170254 21 220 0.0 0.0 0.00 0.00 0.00 55 1019.2
20260503160217 18 345 0.0 0.0 0.00 0.00 0.00 53 1019.6
20260503150647 17 357 0.0 0.0 0.00 0.00 0.00 61 1019.5
20260503150143 17 347 0.0 0.0 0.00 0.00 0.00 65 1019.5
20260503140107 15 351 0.0 0.0 0.00 0.00 0.00 76 1019.1
20260503131037 14 357 0.0 0.0 0.00 0.00 0.00 90 1018.9
20260503130534 13 350 0.0 0.0 0.00 0.00 0.00 91 1019.0
20260503110424 10 1 0.0 0.0 0.00 0.00 0.00 99 1018.0
20260503090315 10 1 0.0 0.0 0.00 0.00 0.00 98 1016.3
20260503081243 11 1 0.0 0.0 0.00 0.00 0.00 98 1015.9
20260503080738 11 1 0.0 0.0 0.00 0.00 0.00 98 1016.1
20260503080236 11 1 0.0 0.0 0.00 0.00 0.00 98 1016.1
20260503072712 11 1 0.0 0.0 0.00 0.00 0.00 97 1015.7
20260503072209 11 1 0.0 0.0 0.00 0.00 0.00 97 1015.3
20260503071706 11 1 0.0 0.0 0.00 0.00 0.00 97 1015.8
20260503071203 11 1 0.0 0.0 0.00 0.00 0.00 97 1015.8
20260503070659 11 1 0.0 0.0 0.00 0.00 0.00 97 1015.6
20260503070158 11 1 0.0 0.0 0.00 0.00 0.00 97 1015.4
20260503060121 12 357 0.0 0.0 0.00 0.00 0.00 96 1015.4
20260503055114 12 348 0.0 0.0 0.00 0.00 0.00 96 1015.7
20260503054609 12 346 0.0 0.0 0.00 0.00 0.00 96 1015.5
20260503054106 12 346 0.0 0.0 0.00 0.00 0.00 96 1015.4
20260503053604 12 346 0.0 0.0 0.00 0.00 0.00 96 1015.4
20260503053102 12 347 0.0 0.0 0.00 0.00 0.00 96 1015.2
20260503052558 12 4 0.0 0.0 0.00 0.00 0.00 96 1015.3
20260503052055 12 4 0.0 0.0 0.00 0.00 0.00 96 1015.4
20260503051550 12 354 0.0 0.0 0.00 0.00 0.00 96 1015.2
20260503051048 12 4 0.0 0.0 0.00 0.00 0.00 96 1015.2
20260503050544 12 9 0.0 0.0 0.00 0.00 0.00 96 1015.3
20260503050041 12 0 0.0 0.0 0.00 0.00 0.00 96 1015.2
20260503045538 12 355 0.0 0.0 0.00 0.00 0.00 96 1015.0
20260503045035 12 338 0.0 0.0 0.00 0.00 0.00 97 1014.9
20260503044532 12 356 0.0 0.0 0.00 0.00 0.00 97 1014.8
20260503044030 12 356 0.0 0.0 0.00 0.00 0.00 97 1014.9
20260503043526 12 356 0.0 0.0 0.00 0.00 0.00 97 1014.7
20260503043022 12 346 0.0 0.0 0.00 0.00 0.00 97 1014.9
20260503042519 12 348 0.0 0.0 0.00 0.00 0.00 97 1014.8
20260503042015 12 356 0.0 0.0 0.00 0.00 0.00 97 1015.0
20260503041513 12 356 0.0 0.0 0.00 0.00 0.00 97 1014.5
20260503041011 12 33 0.0 0.0 0.00 0.00 0.00 97 1014.5
20260503040508 12 20 0.0 0.0 0.00 0.00 0.00 97 1014.4
20260503040005 12 21 0.0 0.0 0.00 3.17 3.17 97 1014.3
20260503035501 12 21 0.0 0.0 0.00 3.17 3.17 97 1014.1
20260503034959 12 22 0.0 0.0 0.00 3.17 3.17 97 1014.2
20260503034456 12 22 0.0 0.0 0.00 3.17 3.17 96 1014.2
20260503033953 12 22 0.0 0.0 0.00 3.17 3.17 96 1014.3
20260503033450 13 22 0.0 0.0 0.00 3.17 3.17 96 1014.3
20260503032949 13 359 0.0 0.0 0.00 3.17 3.17 96 1014.2
20260503032447 13 357 0.0 0.0 0.00 3.17 3.17 96 1014.0
20260503031944 13 359 0.0 0.0 0.00 3.17 3.17 96 1013.9
20260503031442 13 356 0.0 0.0 0.00 3.17 3.17 96 1014.0
20260503030938 13 356 0.0 0.0 0.00 3.17 3.17 96 1013.9
20260503030434 13 356 0.0 0.0 0.00 3.17 3.17 96 1013.6
20260503025931 13 356 0.0 0.0 0.00 3.17 3.17 95 1013.9
20260503025428 13 356 0.0 0.0 0.00 3.17 3.17 95 1013.7
20260503024926 13 356 0.0 0.0 0.00 3.17 3.17 95 1013.6
20260503024422 13 356 0.0 0.0 0.00 3.17 3.17 95 1013.8
20260503023920 13 356 0.0 0.0 0.00 3.17 3.17 95 1013.7
20260503023417 13 356 0.0 0.0 0.00 3.17 3.17 95 1013.5
20260503022913 13 356 0.0 0.0 0.00 3.17 3.17 96 1013.3
20260503022408 13 355 0.0 0.0 0.00 3.17 3.17 96 1013.2
20260503021904 13 356 0.0 0.0 0.00 3.17 3.17 96 1013.0
20260503021401 13 359 0.0 0.0 0.00 3.17 3.17 96 1013.1
20260503020858 13 356 0.0 0.0 0.00 3.17 3.17 96 1013.1
20260503020356 13 359 0.0 0.0 0.00 3.17 3.17 96 1013.1
20260503015852 13 348 0.0 0.0 0.00 3.17 3.17 96 1012.8
20260503015349 13 340 0.0 0.0 0.00 3.17 3.17 97 1012.9
20260503014844 13 352 0.0 0.0 0.00 3.17 3.17 97 1012.6
20260503014343 13 359 0.0 0.0 0.00 3.17 3.17 97 1012.6
20260503013840 13 356 0.0 0.0 0.00 3.17 3.17 97 1012.4
20260503013337 13 356 0.0 0.0 0.00 3.17 3.17 97 1012.1
20260503012834 13 359 0.0 0.0 0.00 3.17 3.17 98 1012.5
20260503012332 13 351 0.0 0.0 0.00 3.17 3.17 98 1012.5
20260503011828 13 4 0.0 0.0 0.00 3.17 3.17 98 1012.4
20260503011325 13 341 0.0 0.0 0.00 3.17 3.17 99 1012.5
20260503010821 13 1 0.0 0.0 0.00 3.17 3.17 99 1012.7
20260503010319 13 344 0.0 0.0 0.00 3.17 3.17 99 1012.8
20260503005815 13 2 0.0 0.0 0.00 3.17 3.17 99 1012.5
20260503005313 13 359 0.0 0.0 0.00 3.17 3.17 99 1012.5
20260503004809 13 359 0.0 0.0 0.00 3.17 3.17 99 1012.2
20260503004307 13 359 1.6 3.2 0.00 3.17 3.17 99 1012.3
20260503003804 13 356 0.0 0.0 0.00 3.17 3.17 99 1012.0
20260503003301 13 346 0.0 0.0 0.00 3.17 3.17 99 1012.0
20260503002757 13 351 0.0 0.0 0.00 3.17 3.17 99 1011.8
20260503002254 13 356 0.0 0.0 0.00 3.17 3.17 99 1011.6
20260503001750 13 5 0.0 0.0 0.00 3.17 3.17 99 1011.8
20260503001247 13 5 0.0 0.0 0.00 3.17 3.17 99 1011.5
20260503000745 13 6 3.2 3.2 0.00 3.17 3.17 99 1011.7
20260503000242 13 0 1.6 3.2 0.00 3.17 3.17 99 1011.8
20260502235739 13 1 0.0 1.6 0.00 3.17 3.17 99 1011.7
20260502235237 13 6 3.2 3.2 0.00 3.17 3.17 99 1011.5
20260502234733 13 359 0.0 1.6 0.00 3.17 3.17 99 1011.5
20260502234231 13 355 0.0 0.0 0.00 3.17 3.17 99 1011.4
20260502233726 13 5 0.0 0.0 0.00 3.17 3.17 99 1011.3
20260502233223 13 357 1.6 1.6 0.00 3.17 3.17 99 1011.4
20260502232719 13 0 1.6 3.2 0.00 3.17 3.17 99 1011.1
20260502232216 13 2 0.0 1.6 0.00 3.17 3.17 99 1010.8
20260502231713 13 350 0.0 1.6 0.00 3.17 3.17 99 1010.9
20260502231211 13 4 1.6 3.2 0.00 3.17 3.17 99 1010.8
20260502230709 13 0 1.6 3.2 0.00 3.17 3.17 99 1010.8
20260502230207 13 13 6.4 9.7 0.00 3.17 3.17 99 1010.9
20260502225702 13 6 1.6 3.2 0.00 3.17 3.17 99 1010.5
20260502225200 13 348 0.0 1.6 0.00 3.17 3.17 99 1010.9
20260502224656 13 0 1.6 3.2 0.00 3.17 3.17 99 1010.6
20260502224153 13 4 0.0 0.0 0.00 3.17 3.17 99 1010.8
20260502223651 13 5 8.0 9.7 0.00 3.17 3.17 99 1010.8
20260502223149 13 350 3.2 3.2 0.00 3.17 3.17 99 1010.6
20260502222646 13 345 4.8 8.0 0.00 3.17 3.17 99 1010.7
20260502222143 13 6 4.8 4.8 0.00 3.17 3.17 99 1010.7
20260502221638 13 338 3.2 3.2 0.00 3.17 3.17 99 1010.8
20260502221136 13 0 3.2 3.2 0.00 3.17 3.17 99 1010.4
20260502220632 13 9 0.0 0.0 0.00 3.17 3.17 99 1010.7
20260502220128 13 1 0.0 0.0 0.00 3.17 3.17 99 1010.4
20260502215625 13 350 0.0 1.6 0.00 3.17 3.17 99 1010.4